Regional Weather Roundup
Issued by NWS

Home | Current Version | Previous Version | Text Only | Print | Product List | Glossary Off
Versions: 1 2 3 4 5 6 7 8 9 10 11 12 13 14 15 16 17 18 19 20 21 22 23 24 25 26 27 28 29 30 31 32 33 34 35 36 37 38 39 40 41 42 43 44 45 46 47 48 49 50

749
ASUS45 KABQ 031010
RWRNM
NEW MEXICO REGIONAL WEATHER ROUNDUP
NATIONAL WEATHER SERVICE ALBUQUERQUE NM
400 AM MDT TUE MAY 03 2016

NOTE: "FAIR" MEANS FEW OR NO CLOUDS BELOW 12,000 FEET AGL WITH NO
       SIGNIFICANT WEATHER OR OBSTRUCTIONS TO VISION.

      THIS PRODUCT IS RELEASED AS TWO VERSIONS.  ONE VERSION NEAR
      THE TOP OF THE HOUR CONTAINING PRELIMINARY DATA FROM ALBUQUERQUE
      AND OTHER STATIONS.  A FINAL VERSION WITH ADDITIONAL DATA IS
      ISSUED ABOUT 10 MINUTES AFTER THE HOUR.

NMZ501-503-504-510>518-031100-
NORTHWEST PLATEAU/NORTHCENTRAL MOUNTAINS

CITY           SKY/WX    TMP DP  RH WIND       PRES   REMARKS
FARMINGTON     FAIR      39  37  92 N5        30.17S
LOS ALAMOS     FAIR      44  31  59 NW3       30.20F
SANTA FE       FAIR      41  34  76 E5        30.17S
TAOS           FAIR      34  27  75 CALM      30.20S
ANGEL FIRE     FAIR      25  23  95 CALM      30.23S

$$
NMZ402-403-502-505>509-031100-
WESTCENTRAL MOUNTAINS/SOUTHWEST MOUNTAINS

CITY           SKY/WX    TMP DP  RH WIND       PRES   REMARKS
GALLUP         FAIR      39  36  89 E6        30.21S WCI  35
GRANTS         CLOUDY    40  39  97 N6        30.23R
SILVER CITY      N/A     45  27  49 NE9       30.14S

$$
NMZ407-409-411-412-031100-
SOUTHERN DESERTS

CITY           SKY/WX    TMP DP  RH WIND       PRES   REMARKS
LORDSBURG      FAIR      50  30  46 S7        30.06S
DEMING         FAIR      49  28  44 NE7       30.08S
LAS CRUCES     FAIR      52  30  43 SE6       30.11R
HOLLOMAN AFB   FAIR      45  25  45 N8        30.09S
ALAMOGORDO     FAIR      46  25  42 NE8       30.11R
T OR C         FAIR      51  37  58 NE7       30.12S

$$
NMZ519>523-031100-
CENTRAL VALLEYS/CENTRAL HIGHLANDS

CITY           SKY/WX    TMP DP  RH WIND       PRES   REMARKS
ALBUQUERQUE    FAIR      51  36  56 CALM      30.15F
DOUBLE EAGLE   MOCLDY    40  36  84 NW3       30.18S
MORIARTY ARPT  FAIR      41  29  62 N3        30.17S
CLINES CORNERS FAIR      41  30  65 NW10      30.16S
BELEN          FAIR      44  41  86 W8        30.16R
SOCORRO        FAIR      47  39  72 CALM      30.15S

$$
NMZ524>526-539-540-031100-
SOUTHCENTRAL MOUNTAINS

CITY           SKY/WX    TMP DP  RH WIND       PRES   REMARKS
RUIDOSO          N/A     37  28  70 W7        30.20S WCI  32

$$
NMZ527>531-031100-
NORTHEAST HIGHLANDS/NORTHEAST PLAINS

CITY           SKY/WX    TMP DP  RH WIND       PRES   REMARKS
LAS VEGAS      FAIR      37  31  78 N5        30.16S WCI  33
RATON          FAIR      31  28  89 NE8       30.14S WCI  23
CLAYTON        FAIR      43  34  70 W10       30.09F

$$
NMZ532>537-031100-
EASTCENTRAL PLAINS

CITY           SKY/WX    TMP DP  RH WIND       PRES   REMARKS
TUCUMCARI      FAIR      40  34  79 CALM      30.09S
CANNON AFB     FAIR      44  33  66 SW3       30.10F
CLOVIS AIRPORT FAIR      39  30  70 CALM      30.12S

$$
NMZ028-029-538-031100-
SOUTHEAST PLAINS

CITY           SKY/WX    TMP DP  RH WIND       PRES   REMARKS
ROSWELL        FAIR      47  31  53 W3        30.09F
ARTESIA        FAIR      45  30  57 NW6       30.10S
CARLSBAD       FAIR      44  31  60 CALM      30.09S
HOBBS          FAIR      45  36  70 SW6       30.13S


$$




USA.gov is the U.S. government's official web portal to all federal, state and local government web resources and services.